Tracking 19903 objects as of 16-Oct-2019
HD Live streaming from Space Station
objects crossing your sky now

COSMOS 1275 DEB

Track COSMOS 1275 DEB now!
10-day predictions


NORAD ID: 42219
Int'l Code: 1981-053UK
Perigee: 845.0 km
Apogee: 922.5 km
Inclination: 83.0 °
Period: 102.5 minutes
Semi major axis: 7254 km
RCS: Unknown
Launch date: June 4, 1981
Source: Commonwealth of Independent States (former USSR) (CIS)
Launch site: PLESETSK MISSILE AND SPACE COMPLEX (PKMTR)

Note: This is SATELLITE DEBRIS
aabbcc
Your satellite tracking list
Your tracking list is empty




NASA's NSSDC Master Catalog

Two Line Element Set (TLE):
1 42219U 81053UK  19283.07692048  .00000780  00000-0  46923-3 0  9996
2 42219  82.9527  37.9486 0053374 330.0883  29.7242 14.04975468287424
Source of the keplerian elements: AFSPC